Total_Precipitation_Accumulation
0.62 0.81 1.20 1.57 1.95 2.32 2.52 2.48 2.33 2.34 2.48 2.57 2.44 2.61 2.92 3.23 3.47 3.41 3.32 3.23 3.19 3.16 3.14 3.11 3.03 2.88 2.78 2.63 2.44 2.28 2.13 1.95 1.75 1.68 1.46 1.22 1.07 0.98 0.90 0.88 0.88 0.85 0.82
0.69 0.89 1.25 1.60 2.00 2.33 2.34 2.46 2.61 2.68 2.57 2.84 3.08 3.36 3.69 3.86 4.12 4.37 4.44 4.32 4.09 3.85 3.69 3.55 3.28 2.92 2.75 2.65 2.47 2.27 2.11 1.89 1.70 1.63 1.56 1.28 1.06 0.86 0.73 0.71 0.70 0.70 0.73
0.84 1.00 1.31 1.54 1.81 2.19 2.40 2.55 2.81 2.92 2.90 3.29 3.79 4.27 4.57 4.60 4.63 4.69 4.77 4.74 4.33 3.97 3.69 3.37 3.13 2.87 2.67 2.52 2.44 2.29 2.16 1.93 1.71 1.56 1.59 1.49 1.27 0.98 0.82 0.71 0.64 0.62 0.64
0.71 0.89 1.16 1.52 1.64 1.94 2.17 2.35 2.70 3.08 3.41 3.83 4.36 4.90 5.17 5.33 5.25 4.93 4.69 4.41 4.02 3.63 3.20 2.96 2.91 2.71 2.50 2.32 2.13 1.97 1.88 1.79 1.64 1.53 1.40 1.29 1.17 1.06 0.97 0.88 0.81 0.73 0.69
0.57 0.70 0.85 1.13 1.42 1.67 1.90 2.19 2.49 2.93 3.56 4.27 4.88 5.34 5.65 5.60 5.18 4.70 4.14 3.72 3.38 3.09 2.83 2.61 2.60 2.49 2.24 1.99 1.73 1.54 1.46 1.44 1.42 1.36 1.30 1.21 1.06 0.91 0.85 0.88 0.86 0.84 0.79
0.58 0.60 0.69 0.90 1.12 1.31 1.59 1.95 2.38 2.73 3.29 3.94 4.55 4.94 5.20 5.12 4.71 4.09 3.56 3.19 2.84 2.55 2.31 2.06 1.90 1.78 1.59 1.45 1.32 1.19 1.15 1.15 1.17 1.16 1.11 1.07 1.01 0.93 0.86 0.84 0.81 0.85 0.91
0.58 0.61 0.63 0.74 0.89 1.06 1.28 1.57 1.96 2.45 2.83 3.22 3.77 3.95 3.98 3.79 3.40 3.13 2.90 2.53 2.19 1.92 1.69 1.49 1.37 1.29 1.18 1.09 1.05 1.02 0.99 0.93 0.90 0.88 0.91 0.92 0.86 0.82 0.85 0.91 0.94 0.92 0.90
0.53 0.62 0.64 0.72 0.88 1.03 1.22 1.39 1.65 2.01 2.31 2.47 2.65 2.67 2.57 2.48 2.34 2.15 1.93 1.70 1.49 1.37 1.26 1.11 1.01 0.96 0.94 0.90 0.87 0.83 0.78 0.72 0.67 0.65 0.67 0.71 0.71 0.74 0.82 0.88 0.97 1.03 0.96
0.62 0.65 0.64 0.71 0.84 0.93 1.10 1.20 1.24 1.37 1.48 1.55 1.61 1.66 1.66 1.57 1.53 1.44 1.29 1.18 1.03 0.90 0.84 0.78 0.75 0.72 0.67 0.62 0.57 0.54 0.55 0.60 0.60 0.56 0.56 0.59 0.61 0.64 0.70 0.75 0.83 0.90 0.93
0.71 0.68 0.65 0.67 0.68 0.72 0.81 0.94 1.00 1.00 0.98 1.02 1.02 1.09 1.09 1.02 0.95 0.88 0.81 0.72 0.64 0.57 0.54 0.50 0.50 0.51 0.53 0.50 0.46 0.45 0.43 0.45 0.50 0.51 0.49 0.49 0.51 0.53 0.55 0.61 0.64 0.68 0.76
0.78 0.71 0.68 0.61 0.57 0.58 0.59 0.65 0.75 0.83 0.86 0.85 0.83 0.79 0.77 0.73 0.68 0.64 0.60 0.51 0.45 0.41 0.40 0.41 0.39 0.40 0.45 0.47 0.47 0.47 0.45 0.42 0.42 0.43 0.44 0.43 0.43 0.45 0.45 0.48 0.52 0.56 0.62
0.73 0.65 0.60 0.56 0.50 0.49 0.48 0.49 0.54 0.57 0.64 0.67 0.70 0.69 0.62 0.57 0.54 0.50 0.49 0.47 0.42 0.39 0.39 0.40 0.38 0.36 0.35 0.38 0.41 0.41 0.40 0.39 0.37 0.35 0.35 0.35 0.37 0.39 0.39 0.41 0.45 0.52 0.59
0.91 0.77 0.64 0.56 0.52 0.49 0.50 0.49 0.47 0.47 0.49 0.46 0.46 0.49 0.48 0.45 0.42 0.38 0.38 0.37 0.36 0.35 0.33 0.32 0.32 0.32 0.32 0.32 0.32 0.33 0.32 0.32 0.31 0.30 0.32 0.34 0.36 0.36 0.36 0.38 0.42 0.49 0.56
0.96 0.79 0.68 0.61 0.54 0.51 0.52 0.52 0.47 0.41 0.41 0.39 0.36 0.40 0.41 0.39 0.38 0.37 0.35 0.33 0.31 0.30 0.27 0.24 0.23 0.23 0.23 0.22 0.21 0.20 0.21 0.22 0.22 0.23 0.27 0.32 0.35 0.36 0.39 0.40 0.44 0.49 0.55
1.00 0.91 0.82 0.73 0.61 0.54 0.51 0.50 0.48 0.44 0.41 0.40 0.39 0.41 0.38 0.38 0.38 0.39 0.36 0.33 0.30 0.26 0.24 0.21 0.19 0.16 0.15 0.15 0.14 0.14 0.14 0.17 0.18 0.19 0.22 0.24 0.27 0.32 0.33 0.34 0.40 0.49 0.56
1.27 1.23 1.08 0.89 0.75 0.67 0.61 0.57 0.54 0.46 0.40 0.40 0.43 0.45 0.43 0.43 0.42 0.40 0.39 0.36 0.31 0.27 0.21 0.16 0.15 0.13 0.10 0.11 0.11 0.12 0.15 0.17 0.19 0.21 0.21 0.17 0.16 0.17 0.17 0.21 0.28 0.39 0.50
1.31 1.19 1.08 0.95 0.84 0.78 0.71 0.65 0.60 0.52 0.47 0.47 0.45 0.45 0.44 0.44 0.41 0.36 0.36 0.35 0.30 0.26 0.22 0.17 0.14 0.13 0.10 0.06 0.06 0.07 0.12 0.19 0.23 0.25 0.23 0.18 0.14 0.18 0.23 0.22 0.22 0.31 0.38
1.47 1.36 1.17 1.04 0.90 0.78 0.70 0.65 0.57 0.51 0.50 0.49 0.48 0.44 0.41 0.40 0.37 0.35 0.34 0.32 0.29 0.26 0.24 0.20 0.15 0.15 0.09 0.05 0.04 0.04 0.10 0.16 0.18 0.18 0.21 0.25 0.27 0.20 0.17 0.19 0.29 0.40 0.48
1.39 1.28 1.12 1.00 0.91 0.79 0.67 0.60 0.54 0.50 0.48 0.48 0.44 0.37 0.33 0.33 0.32 0.34 0.33 0.29 0.28 0.26 0.22 0.19 0.17 0.16 0.12 0.03 0.02 0.03 0.09 0.13 0.12 0.12 0.13 0.16 0.21 0.16 0.15 0.26 0.43 0.51 0.62
0.96 0.90 0.86 0.81 0.73 0.65 0.55 0.54 0.53 0.47 0.41 0.35 0.30 0.25 0.24 0.26 0.27 0.28 0.30 0.27 0.26 0.25 0.21 0.18 0.17 0.16 0.13 0.04 0.02 0.03 0.08 0.12 0.12 0.16 0.19 0.15 0.12 0.13 0.17 0.30 0.51 0.66 0.72
0.77 0.74 0.69 0.68 0.62 0.51 0.44 0.44 0.44 0.38 0.29 0.23 0.20 0.18 0.18 0.20 0.21 0.24 0.28 0.28 0.26 0.26 0.24 0.22 0.19 0.14 0.08 0.04 0.01 0.02 0.06 0.10 0.14 0.20 0.25 0.25 0.17 0.17 0.19 0.31 0.53 0.70 0.72
0.76 0.70 0.65 0.60 0.48 0.40 0.39 0.41 0.38 0.27 0.21 0.19 0.19 0.18 0.15 0.12 0.14 0.23 0.29 0.27 0.29 0.30 0.29 0.26 0.21 0.14 0.10 0.05 0.02 0.01 0.02 0.05 0.17 0.30 0.30 0.29 0.26 0.23 0.28 0.41 0.60 0.74 0.89
0.75 0.68 0.57 0.49 0.39 0.34 0.34 0.36 0.31 0.22 0.19 0.21 0.23 0.21 0.18 0.17 0.16 0.22 0.26 0.27 0.28 0.26 0.22 0.21 0.19 0.17 0.15 0.10 0.03 0.02 0.02 0.05 0.15 0.30 0.34 0.33 0.30 0.38 0.56 0.68 0.79 0.92 1.08
0.58 0.50 0.43 0.36 0.30 0.25 0.24 0.23 0.18 0.17 0.20 0.23 0.22 0.20 0.20 0.22 0.22 0.22 0.18 0.19 0.21 0.19 0.16 0.17 0.18 0.20 0.19 0.11 0.07 0.08 0.10 0.12 0.17 0.26 0.39 0.47 0.50 0.64 0.84 0.98 1.07 1.14 1.15
0.37 0.34 0.33 0.29 0.22 0.18 0.16 0.13 0.12 0.14 0.20 0.20 0.19 0.18 0.16 0.19 0.25 0.20 0.11 0.09 0.10 0.07 0.10 0.13 0.14 0.19 0.18 0.09 0.07 0.10 0.13 0.16 0.20 0.26 0.41 0.57 0.63 0.76 0.92 1.03 1.08 1.10 1.09
0.29 0.28 0.25 0.21 0.16 0.13 0.11 0.09 0.08 0.10 0.19 0.21 0.17 0.11 0.10 0.12 0.15 0.17 0.16 0.07 0.02 0.02 0.03 0.04 0.06 0.08 0.09 0.07 0.06 0.08 0.12 0.17 0.23 0.31 0.52 0.64 0.66 0.74 0.84 0.93 1.00 0.99 0.95